Year,Month,Day,Hour,Minute,Value (Times are PST for temperature in C)
2012,07,11,00,00,13.30
2012,07,11,00,01,13.30
2012,07,11,00,02,13.30
2012,07,11,00,03,13.20
2012,07,11,00,04,13.20
2012,07,11,00,05,13.20
2012,07,11,00,06,13.20
2012,07,11,00,07,13.20
2012,07,11,00,08,13.10
2012,07,11,00,09,13.10
2012,07,11,00,10,13.10
2012,07,11,00,11,13.10
2012,07,11,00,12,13.10
2012,07,11,00,13,13.10
2012,07,11,00,14,13.00
2012,07,11,00,15,13.00
2012,07,11,00,16,13.00
2012,07,11,00,17,12.90
2012,07,11,00,18,12.90
2012,07,11,00,19,12.90
2012,07,11,00,20,12.90
2012,07,11,00,21,12.90
2012,07,11,00,22,12.90
2012,07,11,00,23,12.80
2012,07,11,00,24,12.80
2012,07,11,00,25,12.80
2012,07,11,00,26,12.80
2012,07,11,00,27,12.80
2012,07,11,00,28,12.80
2012,07,11,00,29,12.80
2012,07,11,00,30,12.80
2012,07,11,00,31,12.80
2012,07,11,00,32,12.80
2012,07,11,00,33,12.80
2012,07,11,00,34,12.70
2012,07,11,00,35,12.70
2012,07,11,00,36,12.70
2012,07,11,00,37,12.70
2012,07,11,00,38,12.70
2012,07,11,00,39,12.70
2012,07,11,00,40,12.70
2012,07,11,00,41,12.70
2012,07,11,00,42,12.70
2012,07,11,00,43,12.70
2012,07,11,00,44,12.70
2012,07,11,00,45,12.70
2012,07,11,00,46,12.70
2012,07,11,00,47,12.70
2012,07,11,00,48,12.70
2012,07,11,00,49,12.70
2012,07,11,00,50,12.70
2012,07,11,00,51,12.70
2012,07,11,00,52,12.70
2012,07,11,00,53,12.70
2012,07,11,00,54,12.70
2012,07,11,00,55,12.70
2012,07,11,00,56,12.70
2012,07,11,00,57,12.70
2012,07,11,00,58,12.70
2012,07,11,00,59,12.80
2012,07,11,01,00,12.80
2012,07,11,01,01,12.80
2012,07,11,01,02,12.80
2012,07,11,01,03,12.80
2012,07,11,01,04,12.80
2012,07,11,01,05,12.70
2012,07,11,01,06,12.70
2012,07,11,01,07,12.70
2012,07,11,01,08,12.70
2012,07,11,01,09,12.70
2012,07,11,01,10,12.70
2012,07,11,01,11,12.60
2012,07,11,01,12,12.60
2012,07,11,01,13,12.60
2012,07,11,01,14,12.60
2012,07,11,01,15,12.60
2012,07,11,01,16,12.60
2012,07,11,01,17,12.60
2012,07,11,01,18,12.60
2012,07,11,01,19,12.60
2012,07,11,01,20,12.60
2012,07,11,01,21,12.60
2012,07,11,01,22,12.60
2012,07,11,01,23,12.60
2012,07,11,01,24,12.60
2012,07,11,01,25,12.60
2012,07,11,01,26,12.60
2012,07,11,01,27,12.60
2012,07,11,01,28,12.60
2012,07,11,01,29,12.60
2012,07,11,01,30,12.60
2012,07,11,01,31,12.60
2012,07,11,01,32,12.60
2012,07,11,01,33,12.60
2012,07,11,01,34,12.60
2012,07,11,01,35,12.60
2012,07,11,01,36,12.60
2012,07,11,01,37,12.60
2012,07,11,01,38,12.60
2012,07,11,01,39,12.60
2012,07,11,01,40,12.60
2012,07,11,01,41,12.60
2012,07,11,01,42,12.60
2012,07,11,01,43,12.60
2012,07,11,01,44,12.60
2012,07,11,01,45,12.60
2012,07,11,01,46,12.50
2012,07,11,01,47,12.60
2012,07,11,01,48,12.60
2012,07,11,01,49,12.60
2012,07,11,01,50,12.60
2012,07,11,01,51,12.60
2012,07,11,01,52,12.60
2012,07,11,01,53,12.50
2012,07,11,01,54,12.50
2012,07,11,01,55,12.50
2012,07,11,01,56,12.50
2012,07,11,01,57,12.50
2012,07,11,01,58,12.40
2012,07,11,01,59,12.40
2012,07,11,02,00,12.40
2012,07,11,02,01,12.40
2012,07,11,02,02,12.40
2012,07,11,02,03,12.40
2012,07,11,02,04,12.40
2012,07,11,02,05,12.40
2012,07,11,02,06,12.40
2012,07,11,02,07,12.40
2012,07,11,02,08,12.30
2012,07,11,02,09,12.30
2012,07,11,02,10,12.30
2012,07,11,02,11,12.30
2012,07,11,02,12,12.30
2012,07,11,02,13,12.30
2012,07,11,02,14,12.30
2012,07,11,02,15,12.30
2012,07,11,02,16,12.30
2012,07,11,02,17,12.30
2012,07,11,02,18,12.30
2012,07,11,02,19,12.30
2012,07,11,02,20,12.30
2012,07,11,02,21,12.30
2012,07,11,02,22,12.30
2012,07,11,02,23,12.20
2012,07,11,02,24,12.20
2012,07,11,02,25,12.20
2012,07,11,02,26,12.20
2012,07,11,02,27,12.20
2012,07,11,02,28,12.20
2012,07,11,02,29,12.20
2012,07,11,02,30,12.10
2012,07,11,02,31,12.10
2012,07,11,02,32,12.10
2012,07,11,02,33,12.10
2012,07,11,02,34,12.10
2012,07,11,02,35,12.10
2012,07,11,02,36,12.10
2012,07,11,02,37,12.10
2012,07,11,02,38,12.10
2012,07,11,02,39,12.10
2012,07,11,02,40,12.10
2012,07,11,02,41,12.10
2012,07,11,02,42,12.10
2012,07,11,02,43,12.10
2012,07,11,02,44,12.10
2012,07,11,02,45,12.10
2012,07,11,02,46,12.10
2012,07,11,02,47,12.00
2012,07,11,02,48,12.00
2012,07,11,02,49,11.90
2012,07,11,02,50,11.90
2012,07,11,02,51,11.80
2012,07,11,02,52,11.80
2012,07,11,02,53,11.80
2012,07,11,02,54,11.80
2012,07,11,02,55,11.80
2012,07,11,02,56,11.80
2012,07,11,02,57,11.80
2012,07,11,02,58,11.80
2012,07,11,02,59,11.80
2012,07,11,03,00,11.90
2012,07,11,03,01,11.90
2012,07,11,03,02,12.00
2012,07,11,03,03,12.00
2012,07,11,03,04,12.10
2012,07,11,03,05,12.20
2012,07,11,03,06,12.20
2012,07,11,03,07,12.30
2012,07,11,03,08,12.40
2012,07,11,03,09,12.40
2012,07,11,03,10,12.40
2012,07,11,03,11,12.40
2012,07,11,03,12,12.40
2012,07,11,03,13,12.50
2012,07,11,03,14,12.50
2012,07,11,03,15,12.50
2012,07,11,03,16,12.40
2012,07,11,03,17,12.40
2012,07,11,03,18,12.40
2012,07,11,03,19,12.40
2012,07,11,03,20,12.40
2012,07,11,03,21,12.40
2012,07,11,03,22,12.40
2012,07,11,03,23,12.40
2012,07,11,03,24,12.40
2012,07,11,03,25,12.40
2012,07,11,03,26,12.40
2012,07,11,03,27,12.40
2012,07,11,03,28,12.40
2012,07,11,03,29,12.40
2012,07,11,03,30,12.40
2012,07,11,03,31,12.40
2012,07,11,03,32,12.40
2012,07,11,03,33,12.50
2012,07,11,03,34,12.50
2012,07,11,03,35,12.50
2012,07,11,03,36,12.50
2012,07,11,03,37,12.60
2012,07,11,03,38,12.60
2012,07,11,03,39,12.60
2012,07,11,03,40,12.60
2012,07,11,03,41,12.60
2012,07,11,03,42,12.60
2012,07,11,03,43,12.60
2012,07,11,03,44,12.60
2012,07,11,03,45,12.60
2012,07,11,03,46,12.50
2012,07,11,03,47,12.50
2012,07,11,03,48,12.50
2012,07,11,03,49,12.50
2012,07,11,03,50,12.50
2012,07,11,03,51,12.40
2012,07,11,03,52,12.40
2012,07,11,03,53,12.40
2012,07,11,03,54,12.40
2012,07,11,03,55,12.40
2012,07,11,03,56,12.40
2012,07,11,03,57,12.40
2012,07,11,03,58,12.40
2012,07,11,03,59,12.40
2012,07,11,04,00,12.40
2012,07,11,04,01,12.40
2012,07,11,04,02,12.40
2012,07,11,04,03,12.40
2012,07,11,04,04,12.40
2012,07,11,04,05,12.40
2012,07,11,04,06,12.40
2012,07,11,04,07,12.40
2012,07,11,04,08,12.40
2012,07,11,04,09,12.40
2012,07,11,04,10,12.40
2012,07,11,04,11,12.40
2012,07,11,04,12,12.30
2012,07,11,04,13,12.30
2012,07,11,04,14,12.30
2012,07,11,04,15,12.30
2012,07,11,04,16,12.30
2012,07,11,04,17,12.30
2012,07,11,04,18,12.30
2012,07,11,04,19,12.30
2012,07,11,04,20,12.30
2012,07,11,04,21,12.30
2012,07,11,04,22,12.30
2012,07,11,04,23,12.20
2012,07,11,04,24,12.20
2012,07,11,04,25,12.20
2012,07,11,04,26,12.20
2012,07,11,04,27,12.20
2012,07,11,04,28,12.20
2012,07,11,04,29,12.10
2012,07,11,04,30,12.10
2012,07,11,04,31,12.10
2012,07,11,04,32,12.10
2012,07,11,04,33,12.10
2012,07,11,04,34,12.10
2012,07,11,04,35,12.10
2012,07,11,04,36,12.00
2012,07,11,04,37,12.00
2012,07,11,04,38,12.00
2012,07,11,04,39,11.90
2012,07,11,04,40,11.90
2012,07,11,04,41,11.90
2012,07,11,04,42,11.90
2012,07,11,04,43,11.90
2012,07,11,04,44,11.80
2012,07,11,04,45,11.80
2012,07,11,04,46,11.80
2012,07,11,04,47,11.80
2012,07,11,04,48,11.80
2012,07,11,04,49,11.80
2012,07,11,04,50,11.70
2012,07,11,04,51,11.70
2012,07,11,04,52,11.70
2012,07,11,04,53,11.70
2012,07,11,04,54,11.70
2012,07,11,04,55,11.70
2012,07,11,04,56,11.60
2012,07,11,04,57,11.60
2012,07,11,04,58,11.60
2012,07,11,04,59,11.60
2012,07,11,05,00,11.60
2012,07,11,05,01,11.50
2012,07,11,05,02,11.50
2012,07,11,05,03,11.50
2012,07,11,05,04,11.50
2012,07,11,05,05,11.50
2012,07,11,05,06,11.50
2012,07,11,05,07,11.50
2012,07,11,05,08,11.50
2012,07,11,05,09,11.50
2012,07,11,05,10,11.50
2012,07,11,05,11,11.50
2012,07,11,05,12,11.50
2012,07,11,05,13,11.50
2012,07,11,05,14,11.50
2012,07,11,05,15,11.50
2012,07,11,05,16,11.50
2012,07,11,05,17,11.50
2012,07,11,05,18,11.50
2012,07,11,05,19,11.50
2012,07,11,05,20,11.50
2012,07,11,05,21,11.50
2012,07,11,05,22,11.50
2012,07,11,05,23,11.50
2012,07,11,05,24,11.50
2012,07,11,05,25,11.50
2012,07,11,05,26,11.50
2012,07,11,05,27,11.50
2012,07,11,05,28,11.50
2012,07,11,05,29,11.50
2012,07,11,05,30,11.50
2012,07,11,05,31,11.50
2012,07,11,05,32,11.50
2012,07,11,05,33,11.50
2012,07,11,05,34,11.50
2012,07,11,05,35,11.50
2012,07,11,05,36,11.50
2012,07,11,05,37,11.50
2012,07,11,05,38,11.50
2012,07,11,05,39,11.50
2012,07,11,05,40,11.50
2012,07,11,05,41,11.50
2012,07,11,05,42,11.50
2012,07,11,05,43,11.40
2012,07,11,05,44,11.40
2012,07,11,05,45,11.40
2012,07,11,05,46,11.40
2012,07,11,05,47,11.40
2012,07,11,05,48,11.40
2012,07,11,05,49,11.40
2012,07,11,05,50,11.40
2012,07,11,05,51,11.40
2012,07,11,05,52,11.40
2012,07,11,05,53,11.40
2012,07,11,05,54,11.40
2012,07,11,05,55,11.40
2012,07,11,05,56,11.40
2012,07,11,05,57,11.40
2012,07,11,05,58,11.40
2012,07,11,05,59,11.40
2012,07,11,06,00,11.30
2012,07,11,06,01,11.30
2012,07,11,06,02,11.40
2012,07,11,06,03,11.40
2012,07,11,06,04,11.40
2012,07,11,06,05,11.40
2012,07,11,06,06,11.40
2012,07,11,06,07,11.40
2012,07,11,06,08,11.40
2012,07,11,06,09,11.40
2012,07,11,06,10,11.40
2012,07,11,06,11,11.40
2012,07,11,06,12,11.40
2012,07,11,06,13,11.40
2012,07,11,06,14,11.40
2012,07,11,06,15,11.40
2012,07,11,06,16,11.40
2012,07,11,06,17,11.40
2012,07,11,06,18,11.40
2012,07,11,06,19,11.40
2012,07,11,06,20,11.40
2012,07,11,06,21,11.40
2012,07,11,06,22,11.40
2012,07,11,06,23,11.40
2012,07,11,06,24,11.40
2012,07,11,06,25,11.40
2012,07,11,06,26,11.40
2012,07,11,06,27,11.40
2012,07,11,06,28,11.40
2012,07,11,06,29,11.40
2012,07,11,06,30,11.40
2012,07,11,06,31,11.40
2012,07,11,06,32,11.40
2012,07,11,06,33,11.40
2012,07,11,06,34,11.40
2012,07,11,06,35,11.40
2012,07,11,06,36,11.50
2012,07,11,06,37,11.50
2012,07,11,06,38,11.50
2012,07,11,06,39,11.50
2012,07,11,06,40,11.60
2012,07,11,06,41,11.60
2012,07,11,06,42,11.60
2012,07,11,06,43,11.60
2012,07,11,06,44,11.70
2012,07,11,06,45,11.70
2012,07,11,06,46,11.70
2012,07,11,06,47,11.70
2012,07,11,06,48,11.70
2012,07,11,06,49,11.70
2012,07,11,06,50,11.70
2012,07,11,06,51,11.70
2012,07,11,06,52,11.70
2012,07,11,06,53,11.70
2012,07,11,06,54,11.70
2012,07,11,06,55,11.70
2012,07,11,06,56,11.70
2012,07,11,06,57,11.70
2012,07,11,06,58,11.70
2012,07,11,06,59,11.70
2012,07,11,07,00,11.70
2012,07,11,07,01,11.70
2012,07,11,07,02,11.60
2012,07,11,07,03,11.60
2012,07,11,07,04,11.60
2012,07,11,07,05,11.60
2012,07,11,07,06,11.60
2012,07,11,07,07,11.50
2012,07,11,07,08,11.50
2012,07,11,07,09,11.50
2012,07,11,07,10,11.50
2012,07,11,07,11,11.50
2012,07,11,07,12,11.40
2012,07,11,07,13,11.40
2012,07,11,07,14,11.50
2012,07,11,07,15,11.50
2012,07,11,07,16,11.50
2012,07,11,07,17,11.50
2012,07,11,07,18,11.50
2012,07,11,07,19,11.50
2012,07,11,07,20,11.40
2012,07,11,07,21,11.40
2012,07,11,07,22,11.40
2012,07,11,07,23,11.30
2012,07,11,07,24,11.30
2012,07,11,07,25,11.20
2012,07,11,07,26,11.20
2012,07,11,07,27,11.10
2012,07,11,07,28,11.10
2012,07,11,07,29,11.10
2012,07,11,07,30,11.10
2012,07,11,07,31,11.10
2012,07,11,07,32,11.00
2012,07,11,07,33,11.00
2012,07,11,07,34,11.00
2012,07,11,07,35,11.00
2012,07,11,07,36,11.00
2012,07,11,07,37,11.00
2012,07,11,07,38,11.00
2012,07,11,07,39,11.00
2012,07,11,07,40,11.00
2012,07,11,07,41,11.10
2012,07,11,07,42,11.10
2012,07,11,07,43,11.10
2012,07,11,07,44,11.10
2012,07,11,07,45,11.10
2012,07,11,07,46,11.10
2012,07,11,07,47,11.10
2012,07,11,07,48,11.10
2012,07,11,07,49,11.20
2012,07,11,07,50,11.20
2012,07,11,07,51,11.20
2012,07,11,07,52,11.20
2012,07,11,07,53,11.30
2012,07,11,07,54,11.30
2012,07,11,07,55,11.30
2012,07,11,07,56,11.30
2012,07,11,07,57,11.30
2012,07,11,07,58,11.30
2012,07,11,07,59,11.40
2012,07,11,08,00,11.40
2012,07,11,08,01,11.40
2012,07,11,08,02,11.40
2012,07,11,08,03,11.40
2012,07,11,08,04,11.40
2012,07,11,08,05,11.40
2012,07,11,08,06,11.40
2012,07,11,08,07,11.40
2012,07,11,08,08,11.40
2012,07,11,08,09,11.50
2012,07,11,08,10,11.50
2012,07,11,08,11,11.50
2012,07,11,08,12,11.60
2012,07,11,08,13,11.60
2012,07,11,08,14,11.60
2012,07,11,08,15,11.70
2012,07,11,08,16,11.90
2012,07,11,08,17,12.10
2012,07,11,08,18,12.20
2012,07,11,08,19,12.30
2012,07,11,08,20,12.30
2012,07,11,08,21,12.40
2012,07,11,08,22,12.50
2012,07,11,08,23,12.60
2012,07,11,08,24,12.80
2012,07,11,08,25,12.80
2012,07,11,08,26,12.90
2012,07,11,08,27,13.00
2012,07,11,08,28,13.00
2012,07,11,08,29,13.00
2012,07,11,08,30,13.10
2012,07,11,08,31,13.10
2012,07,11,08,32,13.10
2012,07,11,08,33,13.20
2012,07,11,08,34,13.20
2012,07,11,08,35,13.20
2012,07,11,08,36,13.20
2012,07,11,08,37,13.30
2012,07,11,08,38,13.30
2012,07,11,08,39,13.30
2012,07,11,08,40,13.30
2012,07,11,08,41,13.40
2012,07,11,08,42,13.50
2012,07,11,08,43,13.50
2012,07,11,08,44,13.60
2012,07,11,08,45,13.60
2012,07,11,08,46,13.60
2012,07,11,08,47,13.60
2012,07,11,08,48,13.70
2012,07,11,08,49,13.70
2012,07,11,08,50,13.70
2012,07,11,08,51,13.80
2012,07,11,08,52,13.80
2012,07,11,08,53,13.90
2012,07,11,08,54,13.90
2012,07,11,08,55,14.00
2012,07,11,08,56,14.10
2012,07,11,08,57,14.20
2012,07,11,08,58,14.30
2012,07,11,08,59,14.40
2012,07,11,09,00,14.50
2012,07,11,09,01,14.60
2012,07,11,09,02,14.60
2012,07,11,09,03,14.70
2012,07,11,09,04,14.70
2012,07,11,09,05,14.70
2012,07,11,09,06,14.60
2012,07,11,09,07,14.60
2012,07,11,09,08,14.60
2012,07,11,09,09,14.60
2012,07,11,09,10,14.60
2012,07,11,09,11,14.60
2012,07,11,09,12,14.60
2012,07,11,09,13,14.60
2012,07,11,09,14,14.60
2012,07,11,09,15,14.60
2012,07,11,09,16,14.60
2012,07,11,09,17,14.60
2012,07,11,09,18,14.60
2012,07,11,09,19,14.60
2012,07,11,09,20,14.60
2012,07,11,09,21,14.60
2012,07,11,09,22,14.70
2012,07,11,09,23,14.70
2012,07,11,09,24,14.70
2012,07,11,09,25,14.70
2012,07,11,09,26,14.70
2012,07,11,09,27,14.80
2012,07,11,09,28,14.80
2012,07,11,09,29,14.80
2012,07,11,09,30,14.80
2012,07,11,09,31,14.80
2012,07,11,09,32,14.90
2012,07,11,09,33,14.90
2012,07,11,09,34,14.90
2012,07,11,09,35,15.00
2012,07,11,09,36,15.00
2012,07,11,09,37,15.00
2012,07,11,09,38,15.10
2012,07,11,09,39,15.10
2012,07,11,09,40,15.20
2012,07,11,09,41,15.20
2012,07,11,09,42,15.20
2012,07,11,09,43,15.30
2012,07,11,09,44,15.30
2012,07,11,09,45,15.30
2012,07,11,09,46,15.40
2012,07,11,09,47,15.50
2012,07,11,09,48,15.60
2012,07,11,09,49,15.70
2012,07,11,09,50,15.80
2012,07,11,09,51,15.90
2012,07,11,09,52,15.90
2012,07,11,09,53,16.00
2012,07,11,09,54,16.00
2012,07,11,09,55,16.10
2012,07,11,09,56,16.10
2012,07,11,09,57,16.20
2012,07,11,09,58,16.20
2012,07,11,09,59,16.30
2012,07,11,10,00,16.30
2012,07,11,10,01,16.40
2012,07,11,10,02,16.40
2012,07,11,10,03,16.50
2012,07,11,10,04,16.60
2012,07,11,10,05,16.70
2012,07,11,10,06,16.70
2012,07,11,10,07,16.80
2012,07,11,10,08,16.80
2012,07,11,10,09,16.90
2012,07,11,10,10,17.00
2012,07,11,10,11,17.00
2012,07,11,10,12,17.10
2012,07,11,10,13,17.10
2012,07,11,10,14,17.20
2012,07,11,10,15,17.20
2012,07,11,10,16,17.30
2012,07,11,10,17,17.30
2012,07,11,10,18,17.40
2012,07,11,10,19,17.50
2012,07,11,10,20,17.50
2012,07,11,10,21,17.60
2012,07,11,10,22,17.60
2012,07,11,10,23,17.70
2012,07,11,10,24,17.80
2012,07,11,10,25,17.80
2012,07,11,10,26,17.80
2012,07,11,10,27,17.90
2012,07,11,10,28,17.90
2012,07,11,10,29,18.00
2012,07,11,10,30,18.00
2012,07,11,10,31,18.10
2012,07,11,10,32,18.10
2012,07,11,10,33,18.10
2012,07,11,10,34,18.20
2012,07,11,10,35,18.20
2012,07,11,10,36,18.30
2012,07,11,10,37,18.30
2012,07,11,10,38,18.40
2012,07,11,10,39,18.40
2012,07,11,10,40,18.50
2012,07,11,10,41,18.50
2012,07,11,10,42,18.60
2012,07,11,10,43,18.70
2012,07,11,10,44,18.80
2012,07,11,10,45,18.90
2012,07,11,10,46,19.00
2012,07,11,10,47,19.10
2012,07,11,10,48,19.20
2012,07,11,10,49,19.30
2012,07,11,10,50,19.40
2012,07,11,10,51,19.60
2012,07,11,10,52,19.70
2012,07,11,10,53,19.80
2012,07,11,10,54,19.90
2012,07,11,10,55,19.90
2012,07,11,10,56,20.00
2012,07,11,10,57,20.00
2012,07,11,10,58,20.10
2012,07,11,10,59,20.10
2012,07,11,11,00,20.10
2012,07,11,11,01,20.20
2012,07,11,11,02,20.20
2012,07,11,11,03,20.20
2012,07,11,11,04,20.20
2012,07,11,11,05,20.30
2012,07,11,11,06,20.40
2012,07,11,11,07,20.40
2012,07,11,11,08,20.50
2012,07,11,11,09,20.60
2012,07,11,11,10,20.60
2012,07,11,11,11,20.70
2012,07,11,11,12,20.80
2012,07,11,11,13,20.90
2012,07,11,11,14,20.90
2012,07,11,11,15,21.00
2012,07,11,11,16,21.10
2012,07,11,11,17,21.20
2012,07,11,11,18,21.30
2012,07,11,11,19,21.30
2012,07,11,11,20,21.40
2012,07,11,11,21,21.40
2012,07,11,11,22,21.50
2012,07,11,11,23,21.50
2012,07,11,11,24,21.50
2012,07,11,11,25,21.60
2012,07,11,11,26,21.70
2012,07,11,11,27,21.70
2012,07,11,11,28,21.70
2012,07,11,11,29,21.70
2012,07,11,11,30,21.70
2012,07,11,11,31,21.70
2012,07,11,11,32,21.70
2012,07,11,11,33,21.80
2012,07,11,11,34,21.80
2012,07,11,11,35,21.90
2012,07,11,11,36,22.00
2012,07,11,11,37,22.00
2012,07,11,11,38,22.10
2012,07,11,11,39,22.10
2012,07,11,11,40,22.20
2012,07,11,11,41,22.30
2012,07,11,11,42,22.30
2012,07,11,11,43,22.30
2012,07,11,11,44,22.30
2012,07,11,11,45,22.40
2012,07,11,11,46,22.40
2012,07,11,11,47,22.40
2012,07,11,11,48,22.40
2012,07,11,11,49,22.40
2012,07,11,11,50,22.40
2012,07,11,11,51,22.40
2012,07,11,11,52,22.40
2012,07,11,11,53,22.40
2012,07,11,11,54,22.40
2012,07,11,11,55,22.40
2012,07,11,11,56,22.30
2012,07,11,11,57,22.30
2012,07,11,11,58,22.20
2012,07,11,11,59,22.20
2012,07,11,12,00,22.30
2012,07,11,12,01,22.30
2012,07,11,12,02,22.30
2012,07,11,12,03,22.30
2012,07,11,12,04,22.30
2012,07,11,12,05,22.40
2012,07,11,12,06,22.50
2012,07,11,12,07,22.50
2012,07,11,12,08,22.60
2012,07,11,12,09,22.60
2012,07,11,12,10,22.70
2012,07,11,12,11,22.80
2012,07,11,12,12,22.80
2012,07,11,12,13,22.90
2012,07,11,12,14,23.00
2012,07,11,12,15,23.10
2012,07,11,12,16,23.20
2012,07,11,12,17,23.30
2012,07,11,12,18,23.40
2012,07,11,12,19,23.40
2012,07,11,12,20,23.50
2012,07,11,12,21,23.50
2012,07,11,12,22,23.50
2012,07,11,12,23,23.50
2012,07,11,12,24,23.50
2012,07,11,12,25,23.50
2012,07,11,12,26,23.60
2012,07,11,12,27,23.60
2012,07,11,12,28,23.50
2012,07,11,12,29,23.50
2012,07,11,12,30,23.50
2012,07,11,12,31,23.40
2012,07,11,12,32,23.40
2012,07,11,12,33,23.40
2012,07,11,12,34,23.40
2012,07,11,12,35,23.40
2012,07,11,12,36,23.50
2012,07,11,12,37,23.50
2012,07,11,12,38,23.40
2012,07,11,12,39,23.30
2012,07,11,12,40,23.30
2012,07,11,12,41,23.20
2012,07,11,12,42,23.10
2012,07,11,12,43,23.10
2012,07,11,12,44,23.10
2012,07,11,12,45,23.10
2012,07,11,12,46,23.10
2012,07,11,12,47,23.10
2012,07,11,12,48,23.10
2012,07,11,12,49,23.10
2012,07,11,12,50,23.00
2012,07,11,12,51,22.90
2012,07,11,12,52,22.90
2012,07,11,12,53,22.90
2012,07,11,12,54,22.90
2012,07,11,12,55,22.90
2012,07,11,12,56,22.90
2012,07,11,12,57,22.90
2012,07,11,12,58,23.00
2012,07,11,12,59,23.00
2012,07,11,13,00,23.00
2012,07,11,13,01,23.00
2012,07,11,13,02,23.00
2012,07,11,13,03,23.00
2012,07,11,13,04,23.00
2012,07,11,13,05,23.10
2012,07,11,13,06,23.10
2012,07,11,13,07,23.10
2012,07,11,13,08,23.10
2012,07,11,13,09,23.00
2012,07,11,13,10,23.00
2012,07,11,13,11,22.90
2012,07,11,13,12,22.90
2012,07,11,13,13,22.80
2012,07,11,13,14,22.80
2012,07,11,13,15,22.70
2012,07,11,13,16,22.60
2012,07,11,13,17,22.60
2012,07,11,13,18,22.60
2012,07,11,13,19,22.60
2012,07,11,13,20,22.60
2012,07,11,13,21,22.60
2012,07,11,13,22,22.60
2012,07,11,13,23,22.60
2012,07,11,13,24,22.60
2012,07,11,13,25,22.60
2012,07,11,13,26,22.60
2012,07,11,13,27,22.70
2012,07,11,13,28,22.70
2012,07,11,13,29,22.70
2012,07,11,13,30,22.70
2012,07,11,13,31,22.70
2012,07,11,13,32,22.70
2012,07,11,13,33,22.70
2012,07,11,13,34,22.70
2012,07,11,13,35,22.70
2012,07,11,13,36,22.70
2012,07,11,13,37,22.80
2012,07,11,13,38,22.80
2012,07,11,13,39,22.80
2012,07,11,13,40,22.80
2012,07,11,13,41,22.90
2012,07,11,13,42,22.80
2012,07,11,13,43,22.80
2012,07,11,13,44,22.80
2012,07,11,13,45,22.80
2012,07,11,13,46,22.80
2012,07,11,13,47,22.80
2012,07,11,13,48,22.90
2012,07,11,13,49,22.90
2012,07,11,13,50,22.90
2012,07,11,13,51,22.90
2012,07,11,13,52,22.90
2012,07,11,13,53,22.90
2012,07,11,13,54,22.80
2012,07,11,13,55,22.90
2012,07,11,13,56,22.80
2012,07,11,13,57,22.80
2012,07,11,13,58,22.80
2012,07,11,13,59,22.80
2012,07,11,14,00,22.80
2012,07,11,14,01,22.80
2012,07,11,14,02,22.80
2012,07,11,14,03,22.80
2012,07,11,14,04,22.80
2012,07,11,14,05,22.80
2012,07,11,14,06,22.80
2012,07,11,14,07,22.80
2012,07,11,14,08,22.90
2012,07,11,14,09,22.90
2012,07,11,14,10,23.00
2012,07,11,14,11,23.00
2012,07,11,14,12,23.10
2012,07,11,14,13,23.10
2012,07,11,14,14,23.00
2012,07,11,14,15,23.00
2012,07,11,14,16,22.90
2012,07,11,14,17,22.90
2012,07,11,14,18,22.90
2012,07,11,14,19,22.90
2012,07,11,14,20,23.00
2012,07,11,14,21,23.00
2012,07,11,14,22,22.90
2012,07,11,14,23,22.90
2012,07,11,14,24,22.90
2012,07,11,14,25,23.00
2012,07,11,14,26,23.00
2012,07,11,14,27,23.00
2012,07,11,14,28,23.00
2012,07,11,14,29,23.00
2012,07,11,14,30,23.00
2012,07,11,14,31,23.10
2012,07,11,14,32,23.20
2012,07,11,14,33,23.20
2012,07,11,14,34,23.30
2012,07,11,14,35,23.30
2012,07,11,14,36,23.30
2012,07,11,14,37,23.30
2012,07,11,14,38,23.30
2012,07,11,14,39,23.30
2012,07,11,14,40,23.30
2012,07,11,14,41,23.30
2012,07,11,14,42,23.30
2012,07,11,14,43,23.30
2012,07,11,14,44,23.30
2012,07,11,14,45,23.30
2012,07,11,14,46,23.30
2012,07,11,14,47,23.30
2012,07,11,14,48,23.40
2012,07,11,14,49,23.40
2012,07,11,14,50,23.40
2012,07,11,14,51,23.40
2012,07,11,14,52,23.40
2012,07,11,14,53,23.40
2012,07,11,14,54,23.40
2012,07,11,14,55,23.40
2012,07,11,14,56,23.30
2012,07,11,14,57,23.40
2012,07,11,14,58,23.40
2012,07,11,14,59,23.50
2012,07,11,15,00,23.50
2012,07,11,15,01,23.50
2012,07,11,15,02,23.50
2012,07,11,15,03,23.50
2012,07,11,15,04,23.50
2012,07,11,15,05,23.50
2012,07,11,15,06,23.40
2012,07,11,15,07,23.40
2012,07,11,15,08,23.40
2012,07,11,15,09,23.40
2012,07,11,15,10,23.40
2012,07,11,15,11,23.50
2012,07,11,15,12,23.50
2012,07,11,15,13,23.60
2012,07,11,15,14,23.60
2012,07,11,15,15,23.70
2012,07,11,15,16,23.70
2012,07,11,15,17,23.70
2012,07,11,15,18,23.70
2012,07,11,15,19,23.70
2012,07,11,15,20,23.70
2012,07,11,15,21,23.70
2012,07,11,15,22,23.70
2012,07,11,15,23,23.70
2012,07,11,15,24,23.70
2012,07,11,15,25,23.70
2012,07,11,15,26,23.70
2012,07,11,15,27,23.60
2012,07,11,15,28,23.60
2012,07,11,15,29,23.60
2012,07,11,15,30,23.60
2012,07,11,15,31,23.50
2012,07,11,15,32,23.50
2012,07,11,15,33,23.50
2012,07,11,15,34,23.50
2012,07,11,15,35,23.40
2012,07,11,15,36,23.40
2012,07,11,15,37,23.30
2012,07,11,15,38,23.30
2012,07,11,15,39,23.40
2012,07,11,15,40,23.40
2012,07,11,15,41,23.40
2012,07,11,15,42,23.40
2012,07,11,15,43,23.40
2012,07,11,15,44,23.40
2012,07,11,15,45,23.40
2012,07,11,15,46,23.40
2012,07,11,15,47,23.50
2012,07,11,15,48,23.50
2012,07,11,15,49,23.50
2012,07,11,15,50,23.60
2012,07,11,15,51,23.60
2012,07,11,15,52,23.60
2012,07,11,15,53,23.60
2012,07,11,15,54,23.60
2012,07,11,15,55,23.60
2012,07,11,15,56,23.60
2012,07,11,15,57,23.60
2012,07,11,15,58,23.50
2012,07,11,15,59,23.50
2012,07,11,16,00,23.50
2012,07,11,16,01,23.40
2012,07,11,16,02,23.40
2012,07,11,16,03,23.40
2012,07,11,16,04,23.40
2012,07,11,16,05,23.40
2012,07,11,16,06,23.40
2012,07,11,16,07,23.40
2012,07,11,16,08,23.40
2012,07,11,16,09,23.50
2012,07,11,16,10,23.60
2012,07,11,16,11,23.60
2012,07,11,16,12,23.70
2012,07,11,16,13,23.70
2012,07,11,16,14,23.70
2012,07,11,16,15,23.70
2012,07,11,16,16,23.70
2012,07,11,16,17,23.70
2012,07,11,16,18,23.70
2012,07,11,16,19,23.70
2012,07,11,16,20,23.60
2012,07,11,16,21,23.50
2012,07,11,16,22,23.50
2012,07,11,16,23,23.40
2012,07,11,16,24,23.40
2012,07,11,16,25,23.40
2012,07,11,16,26,23.40
2012,07,11,16,27,23.40
2012,07,11,16,28,23.40
2012,07,11,16,29,23.30
2012,07,11,16,30,23.40
2012,07,11,16,31,23.30
2012,07,11,16,32,23.30
2012,07,11,16,33,23.20
2012,07,11,16,34,23.10
2012,07,11,16,35,23.10
2012,07,11,16,36,23.10
2012,07,11,16,37,23.00
2012,07,11,16,38,23.00
2012,07,11,16,39,22.90
2012,07,11,16,40,22.80
2012,07,11,16,41,22.80
2012,07,11,16,42,22.80
2012,07,11,16,43,22.70
2012,07,11,16,44,22.60
2012,07,11,16,45,22.50
2012,07,11,16,46,22.40
2012,07,11,16,47,22.30
2012,07,11,16,48,22.20
2012,07,11,16,49,22.20
2012,07,11,16,50,22.20
2012,07,11,16,51,22.20
2012,07,11,16,52,22.20
2012,07,11,16,53,22.30
2012,07,11,16,54,22.30
2012,07,11,16,55,22.20
2012,07,11,16,56,22.20
2012,07,11,16,57,22.20
2012,07,11,16,58,22.20
2012,07,11,16,59,22.20
2012,07,11,17,00,22.20
2012,07,11,17,01,22.30
2012,07,11,17,02,22.30
2012,07,11,17,03,22.30
2012,07,11,17,04,22.30
2012,07,11,17,05,22.30
2012,07,11,17,06,22.30
2012,07,11,17,07,22.30
2012,07,11,17,08,22.30
2012,07,11,17,09,22.30
2012,07,11,17,10,22.20
2012,07,11,17,11,22.30
2012,07,11,17,12,22.30
2012,07,11,17,13,22.30
2012,07,11,17,14,22.30
2012,07,11,17,15,22.30
2012,07,11,17,16,22.30
2012,07,11,17,17,22.30
2012,07,11,17,18,22.30
2012,07,11,17,19,22.30